5B4ALR-13 Weather Reports


Display with metric or nautical units.
time (UTC)temp
F
wind
direction
speed
MPH
gust
MPH
rain 1hr
in
rain 24hr
in
rain mn
in
humidity
%
barometer
mb
20260507070108 73 315 1.0 1.0 0.00 0.00 0.00 46 1019.6
20260507065108 73 90 0.0 0.0 0.00 0.00 0.00 48 1019.7
20260507064108 73 90 0.0 1.0 0.00 0.00 0.00 46 1019.6
20260507063111 73 135 0.0 1.0 0.00 0.00 0.00 46 1019.7
20260507062113 74 90 1.0 1.0 0.00 0.00 0.00 43 1019.6
20260507061108 74 90 0.0 0.0 0.00 0.00 0.00 40 1019.5
20260507060109 74 90 1.0 1.0 0.00 0.00 0.00 42 1019.5
20260507055108 74 45 0.0 0.0 0.00 0.00 0.00 43 1019.5
20260507054109 73 225 0.0 0.0 0.00 0.00 0.00 43 1019.4
20260507053109 72 315 0.0 0.0 0.00 0.00 0.00 44 1019.4
20260507052110 73 0 0.0 1.0 0.00 0.00 0.00 45 1019.4
20260507051108 72 0 0.0 0.0 0.00 0.00 0.00 49 1019.4
20260507050108 71 0 0.0 0.0 0.00 0.00 0.00 50 1019.4
20260507045111 71 225 1.0 1.0 0.00 0.00 0.00 52 1019.4
20260507044108 70 270 0.0 0.0 0.00 0.00 0.00 54 1019.3
20260507043109 68 315 0.0 0.0 0.00 0.00 0.00 55 1019.2
20260507042108 68 0 0.0 0.0 0.00 0.00 0.00 55 1019.2
20260507041108 67 292 0.0 0.0 0.00 0.00 0.00 56 1019.1
20260507040108 66 270 0.0 0.0 0.00 0.00 0.00 59 1019.1
20260507035108 64 315 0.0 0.0 0.00 0.00 0.00 63 1019.0
20260507034108 62 315 0.0 0.0 0.00 0.00 0.00 65 1019.0
20260507033108 60 315 0.0 0.0 0.00 0.00 0.00 67 1018.9
20260507032108 58 315 0.0 0.0 0.00 0.00 0.00 72 1018.9
20260507031108 58 315 0.0 0.0 0.00 0.00 0.00 73 1018.9
20260507030108 58 270 0.0 0.0 0.00 0.00 0.00 74 1018.9
20260507025108 57 315 0.0 0.0 0.00 0.00 0.00 74 1018.8
20260507024108 57 0 0.0 0.0 0.00 0.00 0.00 74 1018.6
20260507023108 57 0 0.0 0.0 0.00 0.00 0.00 74 1018.5
20260507022108 58 0 0.0 0.0 0.00 0.00 0.00 73 1018.5
20260507021108 58 315 0.0 0.0 0.00 0.00 0.00 73 1018.4
20260507020108 58 0 0.0 0.0 0.00 0.00 0.00 73 1018.4
20260507015108 58 0 0.0 0.0 0.00 0.00 0.00 73 1018.2
20260507014108 58 315 0.0 0.0 0.00 0.00 0.00 73 1018.2
20260507013108 58 292 0.0 0.0 0.00 0.00 0.00 72 1018.2
20260507012107 58 315 0.0 0.0 0.00 0.00 0.00 72 1018.1
20260507011108 58 315 0.0 0.0 0.00 0.00 0.00 72 1018.2
20260507010108 58 270 0.0 0.0 0.00 0.00 0.00 72 1018.2
20260507005108 58 315 0.0 0.0 0.00 0.00 0.00 72 1018.2
20260507004108 59 270 0.0 0.0 0.00 0.00 0.00 72 1018.2
20260507003108 59 0 0.0 0.0 0.00 0.00 0.00 72 1018.3
20260507002107 59 90 0.0 0.0 0.00 0.00 0.00 72 1018.3
20260507001108 59 45 0.0 0.0 0.00 0.00 0.00 71 1018.3
20260507000107 59 225 0.0 0.0 0.00 0.00 0.00 71 1018.3
20260506235108 59 0 0.0 0.0 0.00 0.00 0.00 71 1018.3
20260506234107 60 45 0.0 0.0 0.00 0.00 0.00 71 1018.3
20260506233108 60 315 0.0 0.0 0.00 0.00 0.00 70 1018.3
20260506232107 60 45 0.0 0.0 0.00 0.00 0.00 70 1018.3
20260506231107 60 337 0.0 0.0 0.00 0.00 0.00 70 1018.3
20260506230107 60 337 0.0 0.0 0.00 0.00 0.00 70 1018.4
20260506225107 60 315 1.0 2.0 0.00 0.00 0.00 69 1018.5
20260506224107 60 315 0.0 0.0 0.00 0.00 0.00 69 1018.5
20260506223107 60 0 0.0 0.0 0.00 0.00 0.00 69 1018.4
20260506222107 60 315 0.0 0.0 0.00 0.00 0.00 68 1018.5
20260506221107 61 0 0.0 0.0 0.00 0.00 0.00 68 1018.5
20260506220107 61 0 1.0 2.0 0.00 0.00 0.00 68 1018.5
20260506215107 61 0 0.0 0.0 0.00 0.00 0.00 68 1018.5
20260506214107 61 315 0.0 2.0 0.00 0.00 0.00 68 1018.6
20260506213108 61 225 0.0 0.0 0.00 0.00 0.00 67 1018.4
20260506212107 62 315 0.0 0.0 0.00 0.00 0.00 67 1018.5
20260506211107 62 315 0.0 1.0 0.00 0.00 0.00 67 1018.4
20260506210108 62 0 0.0 1.0 0.00 0.00 0.00 67 1018.4
20260506205107 62 270 1.0 1.0 0.00 0.00 0.00 66 1018.4
20260506204107 62 315 0.0 1.0 0.00 0.00 0.00 66 1018.4
20260506203108 62 0 0.0 0.0 0.00 0.00 0.00 66 1018.4
20260506202107 62 315 0.0 0.0 0.00 0.00 0.00 65 1018.4
20260506201107 63 270 0.0 1.0 0.00 0.00 0.00 65 1018.5
20260506200107 63 315 1.0 1.0 0.00 0.00 0.00 65 1018.5
20260506195107 63 0 0.0 0.0 0.00 0.00 0.00 64 1018.5
20260506194107 63 315 0.0 0.0 0.00 0.00 0.00 64 1018.5
20260506193107 63 292 0.0 1.0 0.00 0.00 0.00 63 1018.5
20260506192107 63 315 0.0 0.0 0.00 0.00 0.00 62 1018.4
20260506191107 63 270 0.0 0.0 0.00 0.00 0.00 61 1018.4
20260506190107 64 225 0.0 0.0 0.00 0.00 0.00 60 1018.3
20260506185107 64 315 0.0 0.0 0.00 0.00 0.00 59 1018.2
20260506184107 64 315 0.0 1.0 0.00 0.00 0.00 58 1018.2
20260506183107 65 270 0.0 0.0 0.00 0.00 0.00 58 1018.1
20260506182107 65 225 0.0 0.0 0.00 0.00 0.00 57 1018.0
20260506181107 65 180 0.0 0.0 0.00 0.00 0.00 57 1017.9
20260506180107 65 225 0.0 0.0 0.00 0.00 0.00 57 1017.9
20260506175107 65 180 0.0 0.0 0.00 0.00 0.00 57 1017.7
20260506174107 66 180 0.0 0.0 0.00 0.00 0.00 57 1017.6
20260506173107 66 247 0.0 0.0 0.00 0.00 0.00 57 1017.5
20260506172107 66 225 0.0 0.0 0.00 0.00 0.00 57 1017.5
20260506171107 66 225 1.0 2.0 0.00 0.00 0.00 57 1017.4
20260506170107 67 247 1.0 3.0 0.00 0.00 0.00 56 1017.4
20260506165107 67 225 0.0 0.0 0.00 0.00 0.00 55 1017.3
20260506164107 67 180 1.0 4.0 0.00 0.00 0.00 54 1017.2
20260506163107 67 225 1.0 2.0 0.00 0.00 0.00 54 1017.2
20260506162107 67 270 1.0 1.0 0.00 0.00 0.00 54 1017.1
20260506161107 68 180 2.0 4.0 0.00 0.00 0.00 53 1017.0
20260506160107 68 225 0.0 0.0 0.00 0.00 0.00 54 1016.9
20260506155107 67 180 2.0 3.0 0.00 0.00 0.00 56 1016.9
20260506154107 68 225 4.0 7.0 0.00 0.00 0.00 55 1017.0
20260506153107 68 180 1.0 4.0 0.00 0.00 0.00 54 1017.0
20260506152107 68 180 1.0 5.0 0.00 0.00 0.00 51 1017.0
20260506151107 68 202 1.0 3.0 0.00 0.00 0.00 53 1017.0
20260506150107 68 225 2.0 6.0 0.00 0.00 0.00 52 1016.9
20260506145107 69 180 1.0 4.0 0.00 0.00 0.00 51 1016.7
20260506144107 69 180 0.0 0.0 0.00 0.00 0.00 49 1016.7
20260506143107 70 225 1.0 3.0 0.00 0.00 0.00 49 1016.8
20260506142107 70 180 1.0 5.0 0.00 0.00 0.00 48 1016.7
20260506141107 70 180 0.0 0.0 0.00 0.00 0.00 46 1016.6
20260506140107 71 180 1.0 3.0 0.00 0.00 0.00 46 1016.6
20260506135107 70 270 0.0 0.0 0.00 0.00 0.00 47 1016.6
20260506134107 70 180 2.0 2.0 0.00 0.00 0.00 49 1016.7
20260506133107 71 112 1.0 2.0 0.00 0.00 0.00 49 1016.6
20260506132107 70 157 1.0 1.0 0.00 0.00 0.00 49 1016.6
20260506131107 71 135 2.0 6.0 0.00 0.00 0.00 48 1016.5
20260506130108 70 180 1.0 1.0 0.00 0.00 0.00 48 1016.6
20260506125107 71 180 1.0 2.0 0.00 0.00 0.00 43 1016.7
20260506124108 72 225 2.0 8.0 0.00 0.00 0.00 44 1016.6
20260506123107 73 0 1.0 2.0 0.00 0.00 0.00 43 1016.6
20260506122107 73 247 1.0 3.0 0.00 0.00 0.00 42 1016.6
20260506121107 72 135 1.0 2.0 0.00 0.00 0.00 43 1016.7
20260506120107 72 180 2.0 5.0 0.00 0.00 0.00 42 1016.8
20260506115107 71 315 0.0 0.0 0.00 0.00 0.00 47 1016.8
20260506114107 72 135 1.0 1.0 0.00 0.00 0.00 45 1016.9
20260506113107 73 180 0.0 0.0 0.00 0.00 0.00 47 1017.0
20260506112107 73 202 2.0 2.0 0.00 0.00 0.00 47 1017.1
20260506111107 72 180 1.0 1.0 0.00 0.00 0.00 48 1017.0
20260506110107 73 180 2.0 2.0 0.00 0.00 0.00 47 1017.1
20260506105107 73 225 0.0 1.0 0.00 0.00 0.00 50 1017.2
20260506104108 72 135 0.0 0.0 0.00 0.00 0.00 51 1017.2
20260506103107 72 90 2.0 2.0 0.00 0.00 0.00 51 1017.2
20260506102107 72 135 0.0 0.0 0.00 0.00 0.00 50 1017.2
20260506101107 71 247 1.0 1.0 0.00 0.00 0.00 50 1017.3
20260506100107 72 90 1.0 2.0 0.00 0.00 0.00 49 1017.3
20260506095107 71 90 3.0 3.0 0.00 0.00 0.00 51 1017.3
20260506094107 73 90 1.0 2.0 0.00 0.00 0.00 48 1017.3
20260506093107 72 180 1.0 1.0 0.00 0.00 0.00 49 1017.4
20260506092107 71 270 1.0 1.0 0.00 0.00 0.00 50 1017.5
20260506091109 70 45 2.0 6.0 0.00 0.00 0.00 49 1017.4
20260506090107 71 90 3.0 3.0 0.00 0.00 0.00 47 1017.5
20260506085107 71 90 2.0 2.0 0.00 0.00 0.00 46 1017.5
20260506084107 71 90 2.0 5.0 0.00 0.00 0.00 45 1017.6
20260506083107 71 45 0.0 1.0 0.00 0.00 0.00 45 1017.6
20260506082107 70 90 1.0 1.0 0.00 0.00 0.00 45 1017.5
20260506081107 69 90 2.0 4.0 0.00 0.00 0.00 44 1017.5
20260506080107 71 90 2.0 6.0 0.00 0.00 0.00 43 1017.5
20260506073107 71 45 2.0 3.0 0.00 0.00 0.00 40 1017.3
20260506072107 71 45 3.0 6.0 0.00 0.00 0.00 41 1017.2
20260506071107 70 45 2.0 4.0 0.00 0.00 0.00 43 1017.2